KC0VVH Weather Reports


time (UTC)temp
C
wind
direction
speed
KPH
gust
KPH
rain 1hr
cm
rain 24hr
cm
rain mn
cm
humidity
%
barometer
mb
20260831192713 22 19 4.8 16.1 0.00 0.51 0.00 63 1016.5
20260831191813 22 14 3.2 16.1 0.00 0.51 0.00 62 1016.5
20260831190912 22 4 1.6 11.3 0.00 0.51 0.00 62 1016.5
20260831190013 22 29 1.6 8.0 0.00 0.51 0.00 62 1016.5
20260831185433 22 29 3.2 9.7 0.00 0.51 0.00 63 1016.5
20260831184513 21 23 3.2 12.9 0.00 0.51 0.00 61 1016.5
20260831183613 21 16 1.6 9.7 0.00 0.51 0.00 58 1016.5
20260831182713 21 237 1.6 8.0 0.00 0.51 0.00 59 1016.5
20260831181813 21 196 1.6 8.0 0.00 0.51 0.00 61 1016.5
20260831180934 21 196 1.6 8.0 0.00 0.51 0.00 61 1016.5
20260831180013 21 196 0.0 4.8 0.00 0.51 0.00 61 1016.5
20260831175412 21 196 0.0 4.8 0.00 0.51 0.00 61 1016.5
20260831174513 20 196 0.0 4.8 0.00 0.51 0.00 61 1016.5
20260831173613 20 196 0.0 8.0 0.00 0.51 0.00 62 1016.5
20260831172712 20 197 0.0 1.6 0.00 0.51 0.00 63 1016.5
20260831171812 20 197 0.0 1.6 0.00 0.51 0.00 62 1016.5
20260831170913 19 197 0.0 9.7 0.00 0.51 0.00 64 1016.5
20260831170013 19 197 3.2 9.7 0.00 0.51 0.00 64 1016.5
20260831165413 18 197 1.6 9.7 0.00 0.51 0.00 66 1016.5
20260831164512 18 197 0.0 6.4 0.00 0.51 0.00 67 1016.5
20260831163613 18 197 0.0 4.8 0.00 0.51 0.00 70 1016.5
20260831162713 18 197 1.6 8.0 0.00 0.51 0.00 70 1016.5
20260831161813 18 197 3.2 9.7 0.00 0.51 0.00 69 1016.5
20260831160934 17 197 3.2 9.7 0.00 0.51 0.00 71 1016.5
20260831160013 17 197 3.2 9.7 0.00 0.51 0.00 71 1016.5
20260831155413 17 197 1.6 9.7 0.00 0.51 0.00 70 1016.5
20260831154513 17 196 0.0 4.8 0.00 0.51 0.00 72 1016.5
20260831153613 17 197 0.0 6.4 0.00 0.51 0.00 75 1016.5
20260831152713 17 197 0.0 3.2 0.00 0.51 0.00 74 1016.5
20260831151812 17 211 0.0 8.0 0.00 0.51 0.00 75 1016.5
20260831150913 17 207 0.0 8.0 0.00 0.51 0.00 75 1016.5
20260831150013 17 132 0.0 6.4 0.00 0.51 0.00 75 1016.5
20260831145413 16 154 0.0 4.8 0.00 0.51 0.00 75 1016.5
20260831144513 16 0 0.0 0.0 0.00 0.51 0.00 76 1016.5
20260831143613 16 0 0.0 0.0 0.00 0.51 0.00 75 1016.5
20260831142713 16 0 0.0 0.0 0.00 0.51 0.00 76 1016.5
20260831141813 16 0 0.0 1.6 0.00 0.51 0.00 76 1016.5
20260831140913 16 0 0.0 0.0 0.00 0.51 0.00 76 1016.5
20260831140013 16 197 0.0 8.0 0.00 0.51 0.00 75 1016.5
20260831135413 16 198 0.0 8.0 0.00 0.51 0.00 75 1016.5
20260831134513 16 205 0.0 4.8 0.00 0.51 0.00 75 1016.5
20260831133613 16 0 0.0 0.0 0.00 0.51 0.00 77 1016.5
20260831132713 15 205 1.6 9.7 0.00 0.51 0.00 79 1016.5
20260831131813 14 205 0.0 6.4 0.00 0.51 0.00 84 1016.5
20260831130913 14 0 0.0 0.0 0.00 0.51 0.00 85 1016.5
20260831130013 14 0 0.0 0.0 0.00 0.51 0.00 84 1016.5
20260831125434 14 0 0.0 0.0 0.00 0.51 0.00 84 1016.5
20260831124513 15 0 0.0 0.0 0.00 0.51 0.00 84 1016.5
20260831123613 15 0 0.0 0.0 0.00 0.51 0.00 82 1016.5
20260831122713 15 0 0.0 0.0 0.00 0.51 0.00 81 1016.5
20260831121813 15 0 0.0 0.0 0.00 0.51 0.00 80 1016.5
20260831120913 15 0 0.0 0.0 0.00 0.51 0.00 79 1016.5
20260831120013 16 0 0.0 0.0 0.00 0.51 0.00 78 1016.5
20260831115413 16 0 0.0 0.0 0.00 0.51 0.00 76 1016.5
20260831114513 16 0 0.0 0.0 0.00 0.51 0.00 75 1016.5
20260831113613 16 0 0.0 0.0 0.00 0.51 0.00 74 1016.5
20260831112713 16 0 0.0 0.0 0.00 0.51 0.00 74 1016.5
20260831111812 16 0 0.0 0.0 0.00 0.53 0.00 73 1016.5
20260831110913 16 0 0.0 0.0 0.00 0.56 0.00 73 1016.5
20260831110013 16 0 0.0 0.0 0.00 0.56 0.00 73 1016.5
20260831105413 16 205 0.0 1.6 0.00 0.56 0.00 73 1016.5
20260831104513 16 205 1.6 11.3 0.00 0.64 0.00 72 1016.5
20260831103613 16 205 0.0 8.0 0.00 0.64 0.00 72 1016.5
20260831102713 17 205 0.0 9.7 0.00 0.64 0.00 72 1016.5
20260831101813 16 205 0.0 8.0 0.00 0.64 0.00 72 1016.5
20260831100913 16 208 1.6 11.3 0.00 0.64 0.00 72 1016.5
20260831100012 16 205 0.0 9.7 0.00 0.64 0.00 72 1016.5
20260831095433 16 194 1.6 9.7 0.00 0.64 0.00 72 1016.5
20260831094513 16 188 0.0 9.7 0.00 0.64 0.00 72 1016.5
20260831093613 16 188 0.0 9.7 0.00 0.64 0.00 72 1016.5
20260831092713 16 189 0.0 9.7 0.00 0.64 0.00 72 1016.5
20260831091834 16 187 1.6 14.5 0.00 0.64 0.00 72 1016.5
20260831090912 16 185 1.6 12.9 0.00 0.64 0.00 71 1016.5
20260831090013 16 192 1.6 11.3 0.00 0.64 0.00 71 1016.5
20260831085413 16 186 1.6 11.3 0.00 0.64 0.00 72 1016.5
20260831084513 16 180 3.2 14.5 0.00 0.64 0.00 72 1016.5
20260831083613 16 187 6.4 20.9 0.00 0.64 0.00 73 1016.5
20260831082713 16 188 8.0 20.9 0.00 0.64 0.00 74 1016.5
20260831081834 16 194 4.8 19.3 0.00 0.64 0.00 76 1016.5
20260831080913 16 189 4.8 12.9 0.00 0.64 0.00 76 1016.5
20260831080013 16 197 1.6 12.9 0.00 0.64 0.00 77 1016.5
20260831075413 16 201 1.6 9.7 0.00 0.64 0.00 77 1016.5
20260831074512 16 205 1.6 11.3 0.00 0.64 0.00 76 1016.5
20260831073613 16 190 0.0 3.2 0.00 0.64 0.00 75 1016.5
20260831072713 16 190 0.0 9.7 0.00 0.64 0.00 75 1016.5
20260831071813 16 190 1.6 9.7 0.00 0.64 0.00 75 1016.5
20260831070913 16 190 0.0 9.7 0.00 0.64 0.00 75 1016.5
20260831070013 16 0 0.0 0.0 0.00 0.64 0.00 74 1016.5
20260831065413 16 188 0.0 8.0 0.00 0.64 0.00 74 1016.5
20260831064513 16 195 3.2 12.9 0.00 0.64 0.00 73 1016.5
20260831063613 16 198 3.2 14.5 0.00 0.64 0.00 73 1016.5
20260831062713 16 197 3.2 11.3 0.00 0.64 0.00 74 1016.5
20260831061813 16 208 1.6 14.5 0.00 0.64 0.00 75 1016.5
20260831060934 16 203 0.0 11.3 0.00 0.64 0.00 74 1016.5
20260831060013 16 181 3.2 12.9 0.00 0.64 0.00 75 1016.5
20260831055413 16 187 4.8 16.1 0.00 0.64 0.64 76 1016.5
20260831054534 16 184 0.0 12.9 0.00 0.64 0.64 75 1016.5
20260831053612 16 181 0.0 4.8 0.00 0.64 0.64 75 1016.5
20260831052713 16 0 0.0 0.0 0.00 0.64 0.64 78 1016.5
20260831051813 16 0 0.0 0.0 0.00 0.64 0.64 76 1016.5
20260831050913 16 180 0.0 1.6 0.00 0.64 0.64 76 1016.5
20260831050034 16 180 0.0 1.6 0.00 0.64 0.64 76 1016.5
20260831045413 16 0 0.0 0.0 0.00 0.64 0.64 76 1016.5
20260831044513 16 0 0.0 0.0 0.00 0.64 0.64 76 1016.5
20260831043634 17 0 0.0 1.6 0.00 0.64 0.64 74 1016.5
20260831042713 17 0 0.0 0.0 0.00 0.64 0.64 70 1016.5
20260831041813 18 0 0.0 0.0 0.00 0.64 0.64 67 1016.5
20260831040913 17 183 1.6 11.3 0.00 0.64 0.64 67 1016.5
20260831040013 17 190 1.6 11.3 0.00 0.64 0.64 68 1016.5
20260831035413 17 190 1.6 11.3 0.00 0.64 0.64 68 1016.5
20260831034513 17 190 1.6 9.7 0.00 0.64 0.64 70 1016.5
20260831033613 17 191 3.2 12.9 0.00 0.64 0.64 71 1016.5
20260831032713 17 193 4.8 20.9 0.00 0.64 0.64 75 1016.5
20260831031813 16 203 6.4 20.9 0.00 0.64 0.64 78 1016.5
20260831030913 16 209 1.6 11.3 0.00 0.64 0.64 82 1016.5
20260831030013 16 212 1.6 9.7 0.00 0.64 0.64 82 1016.5
20260831025434 16 90 0.0 3.2 0.00 0.64 0.64 82 1016.5
20260831024513 16 0 0.0 0.0 0.00 0.64 0.64 82 1016.5
20260831023613 16 0 0.0 0.0 0.00 0.64 0.64 81 1016.5
20260831022713 17 215 0.0 8.0 0.00 0.64 0.64 79 1016.5
20260831021813 17 229 0.0 8.0 0.00 0.66 0.64 76 1016.5
20260831020934 17 234 1.6 11.3 0.00 0.66 0.64 74 1016.5
20260831020013 17 232 0.0 9.7 0.00 0.66 0.64 76 1016.5
20260831015413 17 230 3.2 17.7 0.00 0.66 0.64 76 1016.5
20260831014534 17 225 4.8 19.3 0.00 0.66 0.64 77 1016.5
20260831013613 16 240 1.6 16.1 0.03 0.66 0.64 78 1016.5
20260831012713 16 233 1.6 11.3 0.03 0.66 0.64 80 1016.5
20260831011834 16 235 1.6 14.5 0.05 0.66 0.64 81 1016.5
20260831010913 16 226 0.0 8.0 0.13 0.66 0.64 83 1016.5
20260831010013 16 187 1.6 8.0 0.25 0.66 0.64 84 1016.5
20260831005413 16 181 0.0 8.0 0.33 0.66 0.64 84 1016.5
20260831004513 16 180 0.0 3.2 0.46 0.66 0.64 83 1016.5
20260831003613 16 278 0.0 1.6 0.48 0.64 0.61 83 1016.5
20260831002713 16 9 0.0 4.8 0.48 0.64 0.61 81 1016.5
20260831001813 16 291 1.6 19.3 0.46 0.61 0.58 79 1016.5
20260831000913 17 261 8.0 33.8 0.38 0.53 0.51 76 1016.5
20260831000013 18 293 14.5 40.2 0.25 0.41 0.38 68 1016.5
20260830235413 21 301 6.4 37.0 0.18 0.33 0.33 59 1016.5
20260830234513 23 0 0.0 0.0 0.05 0.20 0.18 60 1016.5
20260830233613 24 0 0.0 0.0 0.00 0.15 0.13 47 1016.5
20260830232713 24 0 0.0 0.0 0.00 0.15 0.13 44 1016.5
20260830231813 24 196 1.6 9.7 0.00 0.15 0.13 43 1016.5
20260830230913 24 197 8.0 14.5 0.00 0.15 0.13 42 1016.5
20260830230013 25 199 4.8 12.9 0.00 0.15 0.13 43 1016.5
20260830225413 25 200 4.8 12.9 0.00 0.15 0.13 42 1016.5
20260830224513 25 194 1.6 11.3 0.00 0.15 0.13 43 1016.5
20260830223613 25 192 4.8 14.5 0.00 0.15 0.13 43 1016.5
20260830222713 25 200 1.6 11.3 0.00 0.15 0.13 42 1016.5
20260830221813 25 199 4.8 12.9 0.00 0.15 0.13 41 1016.5
20260830220913 25 77 1.6 12.9 0.00 0.15 0.13 41 1016.5
20260830220013 25 68 4.8 14.5 0.00 0.15 0.13 40 1016.5
20260830215413 25 184 1.6 11.3 0.00 0.15 0.13 42 1016.5
20260830214513 26 128 3.2 9.7 0.00 0.15 0.13 42 1016.5
20260830213613 25 55 3.2 17.7 0.00 0.15 0.13 44 1016.5
20260830212713 25 194 6.4 17.7 0.00 0.15 0.13 44 1016.5
20260830211813 25 103 3.2 19.3 0.00 0.15 0.13 43 1016.5
20260830210913 26 71 4.8 19.3 0.00 0.15 0.13 43 1016.5
20260830210013 26 56 4.8 20.9 0.00 0.15 0.13 42 1016.5
20260830205413 26 66 1.6 11.3 0.00 0.15 0.13 42 1016.5
20260830204513 25 62 6.4 19.3 0.00 0.15 0.13 41 1016.5
20260830203613 25 58 1.6 8.0 0.00 0.15 0.13 41 1016.5
20260830202713 25 57 1.6 11.3 0.00 0.15 0.13 41 1016.5
20260830201813 25 66 4.8 16.1 0.00 0.15 0.13 42 1016.5
20260830200913 25 114 3.2 14.5 0.00 0.15 0.13 44 1016.5
20260830200013 25 68 3.2 14.5 0.00 0.15 0.13 43 1016.5
20260830195413 24 70 3.2 14.5 0.00 0.15 0.13 43 1016.5
20260830194513 24 64 3.2 11.3 0.00 0.15 0.13 44 1016.5
20260830193613 23 75 4.8 14.5 0.00 0.15 0.13 45 1016.5